Location: Tamazert
(32.6352°N, 5.2072°W)
Time: 15:37:07
(UTC+00:00)

Vanguard 3 - Pass Details

Date: 07 October 2022
Orbit: 509 x 3255 km, 33.3° (Epoch: 08 December)

Event Time Altitude Azimuth Distance (km) Brightness Sun altitude
Rises 10:57:45 0° 280° (W) 2,949 9.8 48.2°
Reaches altitude 10° 10:59:39 10° 278° (W) 2,203 9.3 48.4°
Maximum altitude 11:04:41 77° 194° (SSW) 1,006 8.8 48.9°
Drops below altitude 10° 11:13:29 10° 109° (ESE) 3,745 11.1 49.6°
Sets 11:17:39 0° 109° (ESE) 5,203 11.6 49.9°
